Find Starlink 37011

NORAD ID: 68217 Int'l Des: 2026-053 Owner: SPXS Country: US Constellation: starlink operational
LEOCIRCULARRETROGRADE

实时位置

正在加载3D地球...

关于 Starlink 37011

正在加载描述...

即将过境

Passes for default location (London). Set your location on the main map for personalized predictions.

高度历史

Loading altitude history...

两行轨道根数

1 68217U 26053L 26122.23069869 .00021618 00000-0 66988-3 0 9994
2 68217 97.2846 358.0101 0000724 114.5534 245.5785 15.33452842 8423
Epoch: May 2, 2026 • Age: 14 hours

当前状态

高度 490.2 km
速度 7.62 km/s
星下点 -63.25°S, 137.83°W
发射日期 Mar 17, 2026
运行时间 0.1 years
类型 internet

技术详情

分类 Payload
质量 575.00 kg
干质量 530.00 kg
总质量 575.00 kg
长度 0.30 m
直径 4.10 m
跨度 29.00 m
形状 Box + pan
制造商 SPXS
平台类型 Starlink V2MO
阶段状态 In Orbit
所有者/国家 SPXS/US

Most Searched